Weather History for KHIE - July, 2014

Change the Weather History Date:

Thursday, July 31, 2014

  Actual Average Record
Temperature  
Mean Temperature 58 °F -  
Max Temperature 69 °F 76 °F 89 °F (1999)
Min Temperature 46 °F 48 °F 39 °F (2010)
Degree Days  
Heating Degree Days 8    
Growing Degree Days 8 (Base 50)    
Moisture  
Dew Point 54 °F    
Average Humidity 85    
Maximum Humidity 93    
Minimum Humidity 63    
Precipitation  
Precipitation 0.04 in - - ()
Sea Level Pressure  
Sea Level Pressure 30.10 in    
Wind  
Wind Speed 1 mph (WSW)    
Max Wind Speed 7 mph    
Max Gust Speed -    
Visibility 7 miles    
Events Fog , Rain , Thunderstorm    
Averages and records for this station are not official NWS values.
T = Trace of Precipitation, MM = Missing Value Source: NWS Daily Summary

Daily Weather History Graph

Daily Weather History Graph

Search for Another Location

Airport or City:

Trip Planner

Search our weather history database for the weather conditions in past years. The results will help you decide how hot, cold, wet, or windy it might be!

Date:

Astronomy

Jul. 31, 2014 Rise Set
Actual Time 5:32 AM EDT 8:12 PM EDT
Civil Twilight 4:58 AM EDT 8:45 PM EDT
Nautical Twilight 4:16 AM EDT 9:27 PM EDT
Astronomical Twilight 3:28 AM EDT 10:15 PM EDT
Moon 10:08 AM EDT (7/31) 10:10 PM EDT (7/31)
Length of Visible Light 15h 46m
Length of Day
14h 40m
Waxing Crescent, 19% of the Moon is Illuminated
Jul 31
Waxing Crescent
Aug 3
First Quarter
Aug 10
Full
Aug 17
Last Quarter
Aug 25
New

Hourly Weather History & Observations

Time (EDT) Temp. Dew Point Humidity Pressure Visibility Wind Dir Wind Speed Gust Speed Precip Events Conditions
12:52 AM 50.0 °F 46.9 °F 89% 30.06 in 10.0 mi Calm Calm - N/A   Clear
3:52 AM 46.9 °F 44.1 °F 90% 30.06 in 10.0 mi Calm Calm - N/A   Clear
4:43 AM 46.9 °F 44.1 °F 90% 30.05 in 10.0 mi West 3.5 mph - N/A   Overcast
4:52 AM 46.9 °F 45.0 °F 93% 30.06 in 9.0 mi WNW 4.6 mph - N/A   Overcast
6:52 AM 50.0 °F 46.9 °F 89% 30.08 in 10.0 mi Calm Calm - N/A   Overcast
7:52 AM 53.1 °F 51.1 °F 93% 30.10 in 10.0 mi Calm Calm - N/A   Overcast
9:52 AM 59.0 °F 55.0 °F 87% 30.09 in 10.0 mi Calm Calm - 0.00 in Rain Light Rain
10:52 AM 63.0 °F 57.0 °F 81% 30.09 in 10.0 mi West 4.6 mph - 0.00 in   Mostly Cloudy
11:52 AM 64.9 °F 57.9 °F 78% 30.09 in 10.0 mi Calm Calm - 0.00 in   Mostly Cloudy
12:52 PM 66.9 °F 60.1 °F 79% 30.08 in 10.0 mi Calm Calm - 0.00 in   Mostly Cloudy
1:52 PM 64.9 °F 57.9 °F 78% 30.08 in 10.0 mi South 5.8 mph - 0.01 in Rain Light Rain
2:52 PM 69.1 °F 55.9 °F 63% 30.08 in 10.0 mi SW 6.9 mph - 0.00 in   Mostly Cloudy
3:20 PM 69.1 °F 57.9 °F 68% 30.08 in 10.0 mi WSW 3.5 mph - N/A Thunderstorm Overcast
3:52 PM 66.0 °F 57.0 °F 73% 30.08 in 9.0 mi West 4.6 mph - 0.01 in Rain Light Rain
4:27 PM 66.0 °F 59.0 °F 78% 30.08 in 10.0 mi Calm Calm - 0.02 in Rain , Thunderstorm Light Rain
4:52 PM 68.0 °F 60.1 °F 76% 30.09 in 10.0 mi Calm Calm - 0.02 in Thunderstorm Mostly Cloudy
5:13 PM 69.1 °F 61.0 °F 75% 30.08 in 10.0 mi Variable 4.6 mph - N/A   Partly Cloudy
6:52 PM 69.1 °F 59.0 °F 70% 30.10 in 10.0 mi Calm Calm - N/A   Partly Cloudy
8:52 PM 60.1 °F 57.9 °F 93% 30.14 in 6.0 mi Calm Calm - N/A   Clear
10:13 PM 55.9 °F 54.0 °F 93% 30.14 in 1.8 mi Calm Calm - N/A   Clear
10:23 PM 55.9 °F 54.0 °F 93% 30.14 in 3.0 mi Calm Calm - N/A   Clear
10:39 PM 54.0 °F 52.0 °F 93% 30.14 in 1.8 mi ENE 3.5 mph - N/A   Partly Cloudy
10:43 PM 54.0 °F 52.0 °F 93% 30.14 in 0.8 mi ENE 3.5 mph - N/A   Mist
10:52 PM 55.0 °F 53.1 °F 93% 30.15 in 0.2 mi Calm Calm - N/A Fog Fog
11:22 PM 54.0 °F 52.0 °F 93% 30.15 in 1.2 mi Calm Calm - N/A   Overcast
11:25 PM 54.0 °F 52.0 °F 93% 30.15 in 0.8 mi Calm Calm - N/A   Mist
11:52 PM 53.1 °F 51.1 °F 93% 30.17 in 1.5 mi Calm Calm - N/A   Mostly Cloudy
11:54 PM 53.1 °F 51.1 °F 93% 30.16 in 3.0 mi Calm Calm - N/A   Scattered Clouds